Wind_Speed
13 12 14 16 17 19 13 6 4 3 2 4 2 5 1 1 3 5 6 5 9 9 4 8 8 7 7 6 4 7 3 5 11 15 3 2 1 1 3 4 10 12 11 8
12 12 11 13 13 15 12 6 4 0 2 5 6 2 5 4 5 7 4 5 6 4 9 5 9 9 3 6 8 3 4 5 8 6 3 3 4 4 2 6 6 12 11 2
12 12 10 11 11 13 9 4 4 3 2 1 5 8 10 8 6 9 7 7 6 9 12 12 7 8 5 7 9 9 10 9 11 12 13 0 4 5 2 4 5 8 7 11
12 11 12 11 9 9 5 3 1 2 4 6 7 6 10 11 9 9 6 6 11 12 14 15 15 15 11 8 12 12 5 12 16 14 6 2 1 2 2 4 3 5 9 10
10 9 10 10 10 7 7 4 3 2 8 12 12 11 12 13 13 10 10 13 13 13 13 15 14 6 9 11 6 8 8 6 5 11 9 8 7 5 2 4 2 7 9 11
9 8 9 10 8 3 3 1 2 3 7 10 7 11 12 12 10 9 13 14 14 15 17 15 14 13 10 10 8 12 8 6 6 13 7 7 9 8 3 3 2 4 5 9
8 9 10 10 9 7 3 4 2 4 12 12 13 13 15 16 16 16 14 12 15 17 3 1 5 10 11 12 13 12 13 13 9 10 6 8 5 4 2 2 2 4 7 10
9 12 11 11 11 10 11 9 5 3 9 13 13 12 14 15 16 6 10 13 11 4 6 4 4 8 7 10 9 10 12 13 8 7 9 5 7 3 2 1 4 5 8 10
10 9 11 13 14 14 14 12 16 3 5 3 7 11 6 6 6 10 11 3 2 4 3 3 5 6 3 4 5 3 7 10 8 5 8 6 7 5 2 0 4 6 7 10
10 13 12 13 13 11 11 8 9 5 5 6 2 3 4 4 5 5 3 3 4 3 3 5 5 6 2 3 3 1 3 3 10 9 7 5 4 2 1 3 3 7 8 8
12 12 12 12 10 8 7 6 6 5 4 4 5 4 2 3 4 6 2 3 4 4 5 3 3 3 2 4 4 4 3 3 1 2 2 3 7 3 3 4 3 6 8 9
11 11 12 9 8 8 6 3 3 6 6 4 7 10 8 5 6 5 3 4 2 2 3 2 1 2 1 2 3 5 2 4 3 4 3 4 6 8 3 2 4 6 8 9
11 11 9 9 6 3 3 1 5 4 3 2 1 3 7 8 13 9 3 3 2 3 1 3 3 6 4 1 4 3 3 4 2 4 4 5 6 5 6 6 5 6 7 8
11 9 6 5 1 4 2 6 9 3 5 2 4 5 5 15 13 4 13 2 6 6 4 4 4 3 6 3 5 5 4 6 3 3 3 1 3 6 7 7 8 8 9 9
10 6 4 4 2 7 11 12 14 12 5 2 4 5 12 15 17 19 15 9 5 3 3 4 3 3 3 3 4 6 6 4 4 4 4 4 5 5 8 7 7 8 8 9
9 3 3 4 6 4 0 3 3 22 7 2 3 3 11 15 14 20 20 12 7 5 4 4 3 4 2 3 3 6 5 4 3 3 5 3 4 3 6 6 8 8 6 6
5 8 13 12 9 8 9 5 16 14 4 0 4 3 5 16 3 5 9 18 5 4 3 3 3 4 3 3 3 8 6 3 5 5 4 3 4 3 7 6 7 7 5 6
6 19 18 18 16 11 9 16 23 7 7 7 3 3 2 14 4 2 6 3 4 6 3 3 3 3 4 5 6 7 9 6 6 7 3 3 4 5 5 5 6 6 4 7
16 13 11 6 8 5 5 6 14 23 12 3 4 6 4 12 5 3 2 3 4 3 4 3 3 4 6 6 7 7 8 7 7 8 4 3 2 5 7 6 7 6 7 8
8 3 4 3 6 10 3 6 5 8 9 5 5 7 4 6 6 3 2 3 3 3 3 3 4 4 5 7 6 5 7 8 8 7 7 7 7 8 7 6 8 8 9 9
4 4 3 3 9 5 6 5 6 6 4 5 5 7 7 7 5 4 5 2 3 3 3 2 2 3 6 8 7 9 9 9 7 8 8 8 9 9 9 10 8 8 9 10
8 14 9 7 9 5 6 5 4 6 4 6 7 7 5 4 4 3 4 3 3 4 2 2 3 4 7 7 6 7 10 10 10 10 9 9 9 9 10 10 10 11 11 11
8 8 6 5 6 11 7 8 4 4 6 5 8 8 4 4 5 3 4 4 4 1 3 3 3 6 8 8 9 11 12 11 11 12 11 11 10 10 9 10 10 11 11 10
5 5 8 6 6 6 3 6 6 5 5 8 7 5 4 3 3 3 4 3 2 3 3 3 4 7 9 10 12 12 12 13 13 13 12 12 11 12 11 10 10 11 12 12
5 5 6 6 3 3 5 5 5 4 6 6 4 1 3 4 3 4 3 3 4 4 4 4 6 9 9 9 12 12 13 13 12 13 12 12 12 12 12 11 11 11 12 11
5 8 4 5 4 8 7 6 5 7 5 3 2 3 3 6 3 4 6 3 4 4 5 6 7 8 9 12 13 14 14 14 14 14 13 13 13 13 13 13 11 11 10 12
5 5 6 5 4 6 7 7 7 9 2 3 2 5 4 2 3 4 4 3 5 6 7 6 10 9 12 13 13 14 14 14 13 13 13 13 13 12 11 12 12 12 12 14
Wind_Direction
329 331 336 342 348 346 349 312 287 31 356 247 219 253 63 283 224 230 250 268 261 257 253 266 242 244 213 175 231 259 298 298 284 278 77 218 187 203 265 270 301 308 296 295
333 319 342 355 347 351 338 307 283 317 323 267 246 168 257 262 232 240 219 242 237 240 256 261 254 245 201 259 236 269 156 237 278 211 168 183 221 155 215 262 262 262 273 295
331 345 329 333 335 336 337 292 297 171 223 333 305 299 279 255 220 249 246 253 256 256 249 238 251 245 225 225 250 261 274 252 250 267 297 17 213 176 206 253 271 320 293 319
342 334 322 319 322 335 316 247 17 19 286 275 279 266 288 261 260 228 228 234 247 268 268 256 246 248 260 246 241 249 250 265 271 275 277 254 229 176 216 230 299 268 343 311
328 331 340 332 323 323 267 289 286 201 283 281 272 263 258 257 268 244 246 239 269 274 254 252 269 277 260 269 261 235 221 259 287 273 217 210 231 183 219 220 304 279 316 287
329 347 352 347 330 263 305 340 306 268 284 268 259 275 270 276 275 270 257 273 285 272 277 252 256 257 256 252 250 257 223 246 244 263 195 203 251 212 179 155 93 319 310 337
344 338 331 329 326 302 224 239 264 257 277 277 273 263 271 273 264 265 271 282 281 278 290 29 260 246 251 253 250 241 252 257 254 261 181 233 91 70 64 139 120 6 325 336
327 327 317 312 315 305 262 240 209 247 271 279 282 281 292 290 274 264 270 284 326 89 176 204 218 219 220 225 232 246 242 242 240 239 227 114 175 105 338 322 129 28 337 339
324 325 321 314 307 302 294 278 237 242 280 220 315 299 315 296 302 298 268 100 153 169 215 212 217 233 256 165 177 237 231 237 240 200 253 259 78 94 86 251 196 23 358 348
319 316 318 312 308 315 304 269 233 230 270 316 300 276 337 300 278 265 240 184 200 213 228 229 227 225 123 247 254 141 192 224 241 235 235 105 20 358 189 238 55 350 357 355
321 320 316 322 322 323 315 290 256 240 274 311 32 35 329 298 277 281 19 246 206 200 244 248 202 244 118 99 38 10 344 306 69 297 266 168 356 189 298 19 356 1 347 355
323 320 322 322 325 316 314 282 279 256 242 59 89 85 59 37 335 300 242 317 278 24 259 209 306 154 124 70 148 43 187 10 23 15 51 73 50 66 87 9 344 5 348 345
324 326 326 329 318 337 335 146 341 291 199 104 149 6 349 349 330 272 281 162 55 82 339 17 44 76 334 81 68 129 97 6 73 199 91 67 55 70 37 18 8 354 350 344
322 324 320 333 344 32 96 73 12 296 304 287 87 50 36 353 358 310 222 84 86 93 41 54 43 73 3 55 76 61 356 320 18 95 94 155 85 37 12 352 6 1 351 353
322 323 315 349 159 109 103 79 47 30 329 43 130 128 25 24 34 42 51 79 78 56 69 51 61 68 77 73 89 48 357 4 349 47 15 315 42 4 357 352 356 359 345 346
333 343 10 70 115 129 126 196 41 2 342 223 139 101 26 14 43 48 45 47 53 67 74 68 73 357 22 79 75 33 19 26 12 360 339 339 330 326 353 333 342 328 351 341
357 104 95 82 83 102 66 48 318 326 333 21 142 105 42 355 356 38 53 52 54 64 78 62 63 35 41 49 62 1 7 7 22 4 311 225 29 342 335 321 321 330 331 330
108 118 102 92 87 80 40 19 19 36 75 39 32 17 70 8 344 62 22 62 60 37 81 78 58 50 55 67 30 17 8 359 24 5 16 333 313 304 314 321 319 327 332 334
125 113 113 76 42 48 356 355 35 52 52 77 47 2 3 345 359 24 67 33 70 63 66 49 58 49 46 6 358 4 1 358 346 333 338 333 317 323 332 321 335 331 334 340
122 73 57 65 5 333 358 9 27 27 34 40 38 355 1 331 335 43 40 36 64 73 56 79 77 80 69 10 357 5 352 343 351 349 350 345 340 336 329 327 315 311 321 324
57 59 63 11 9 41 37 47 31 7 47 15 352 7 343 6 352 2 14 52 36 80 49 68 80 71 16 6 7 6 349 346 356 344 329 332 323 316 323 322 327 327 325 326
82 105 87 34 25 29 60 30 22 30 32 2 352 344 333 320 321 342 12 60 41 72 31 67 76 41 355 358 346 353 357 350 347 343 333 334 330 326 316 319 324 327 322 317
62 52 53 20 1 42 35 8 11 359 358 356 338 340 342 316 3 41 16 51 56 88 46 61 46 11 357 350 342 342 342 339 340 336 332 327 323 324 314 311 310 315 316 313
54 45 40 41 28 33 10 331 323 321 312 328 331 332 2 355 19 5 59 41 34 61 56 51 7 5 341 338 335 331 332 334 335 327 325 321 317 315 312 305 302 304 304 308
60 40 49 45 10 20 346 332 311 328 319 326 321 286 351 11 47 21 30 42 53 35 20 349 340 337 339 335 333 329 327 326 322 323 320 315 310 309 307 307 301 295 296 297
68 43 52 14 10 15 11 359 347 355 325 299 287 4 53 41 20 40 25 33 34 357 339 326 325 337 328 329 327 323 318 317 317 317 315 314 315 314 309 306 302 296 293 292
54 46 35 39 34 9 8 354 348 333 312 27 13 44 22 288 48 37 19 8 331 323 315 323 327 327 327 321 308 313 318 314 314 315 314 310 309 308 305 302 311 307 300 294
Height
866 864 862 859 856 852 849 846 833 838 836 832 824 824 833 838 830 834 832 831 826 824 825 829 830 835 835 838 840 845 844 847 847 834 848 844 841 845 850 852 836 830 828 819
865 863 862 859 857 855 852 843 837 836 835 822 815 826 831 832 829 830 832 831 830 827 828 835 828 827 830 834 837 842 847 846 846 831 851 851 847 855 863 861 859 847 837 830
864 862 860 858 857 856 854 846 833 829 831 832 828 826 824 827 829 828 828 828 828 828 828 826 831 829 829 833 836 837 840 845 846 840 828 845 848 857 866 867 856 850 838 849
862 861 858 856 854 854 854 845 833 841 829 824 829 831 829 827 826 828 826 825 827 828 828 822 821 822 824 828 831 834 840 842 831 827 831 843 849 866 872 868 867 862 858 864
860 858 856 856 853 852 853 845 843 845 838 833 834 828 828 827 823 825 825 828 824 823 830 826 825 822 825 827 826 833 834 838 836 831 830 838 848 857 871 874 871 867 869 864
858 857 855 853 851 850 849 850 850 847 836 829 835 826 820 822 823 822 819 821 822 821 818 818 823 824 824 826 831 827 833 834 835 832 831 833 843 843 862 871 876 878 867 871
858 856 854 854 852 849 848 848 848 846 832 825 820 820 820 820 823 821 820 819 819 817 820 821 824 823 822 823 823 825 830 829 830 831 831 842 858 859 859 867 877 878 876 876
856 853 851 850 849 847 845 845 846 840 830 822 819 818 817 814 814 820 820 817 821 820 824 825 825 818 821 817 820 823 824 829 829 826 820 850 860 869 868 870 874 880 880 876
853 851 849 847 845 844 841 841 840 838 830 818 823 819 818 816 815 814 811 822 825 825 821 819 817 810 805 814 825 825 825 827 826 824 824 822 857 873 877 878 863 879 881 879
851 849 846 844 842 840 839 837 836 835 829 822 825 820 823 821 819 819 815 817 822 823 817 813 811 807 809 813 811 822 823 826 826 818 817 863 880 878 879 871 880 881 882 881
850 846 844 842 840 839 837 834 833 833 828 824 828 829 827 824 823 821 819 821 817 819 817 811 808 807 815 828 857 851 842 847 831 835 825 847 886 878 876 889 883 884 883 883
847 844 841 839 838 836 833 833 831 831 830 831 832 834 836 836 837 833 821 819 817 818 815 815 810 812 820 833 832 869 860 881 868 882 879 891 890 890 892 892 889 888 887 885
843 842 840 838 836 834 832 831 830 829 826 832 832 835 837 836 834 833 828 819 822 825 829 822 824 835 842 831 859 870 883 886 878 881 890 892 891 892 893 893 892 891 889 887
842 839 839 836 832 831 830 832 831 830 826 820 838 839 838 837 831 827 827 825 826 829 831 834 838 846 857 870 879 878 894 889 887 893 894 895 895 897 897 896 894 893 892 890
839 837 835 833 831 831 831 833 833 833 833 825 833 838 842 839 834 830 828 828 829 832 839 846 858 864 869 879 881 899 902 904 892 891 900 900 898 900 900 899 897 897 895 893
836 833 832 830 830 831 832 832 835 834 833 831 831 843 843 841 840 838 836 836 838 842 851 863 873 878 874 878 894 908 907 906 907 904 904 903 903 902 902 901 899 898 897 896
833 831 831 830 831 832 838 847 845 836 833 832 835 837 846 845 841 843 843 845 849 852 862 874 878 883 881 891 902 911 909 908 907 906 905 903 903 902 902 901 900 898 897 895
831 832 835 835 837 839 844 846 841 837 838 842 846 849 847 854 846 844 848 851 855 864 871 879 883 888 892 908 914 913 911 908 907 907 906 906 905 903 902 900 899 897 896 894
832 835 836 838 841 845 850 848 846 843 849 856 866 871 861 862 854 850 852 853 864 871 880 886 887 899 913 919 917 915 914 912 911 908 906 905 904 903 901 899 898 896 895 893
836 838 839 845 852 851 851 850 851 855 864 873 882 880 873 871 862 856 856 861 866 877 891 890 900 917 920 920 918 917 915 914 912 909 906 905 903 902 900 899 897 896 894 892
838 843 851 856 853 854 858 867 873 878 885 890 890 889 887 878 873 866 869 870 873 880 894 895 904 916 921 920 919 918 916 913 912 911 909 907 905 902 900 897 896 894 893 891
845 847 855 859 865 868 876 893 894 897 904 899 898 895 892 885 881 876 878 878 882 898 897 901 912 921 922 920 919 917 916 914 912 910 908 906 904 902 900 898 896 894 893 891
849 855 869 877 891 896 907 915 909 907 909 907 904 899 896 888 886 886 885 887 898 898 904 916 923 924 923 921 919 917 916 914 912 910 908 906 904 902 900 898 896 894 892 890
864 877 898 902 917 920 922 922 920 917 915 911 908 902 901 898 895 894 898 905 903 908 915 924 923 925 924 922 919 917 915 914 912 910 908 906 903 901 898 896 894 893 891 888
885 896 916 924 927 926 926 925 922 919 918 914 909 906 904 907 906 908 908 912 919 921 926 926 925 925 924 922 920 918 916 913 911 909 907 905 902 900 897 895 893 891 889 887
904 921 926 927 925 927 925 924 921 920 918 916 914 911 912 923 919 922 929 926 932 931 929 928 926 925 923 921 920 918 915 912 910 907 904 902 899 897 895 892 890 888 886 884
926 937 935 933 932 931 928 926 923 921 916 917 915 923 936 932 929 936 934 937 935 933 929 926 925 924 922 920 918 915 912 910 907 905 903 900 898 895 892 890 887 885 883 880